国家海洋和大气管理局 1号 (NOAA 1)

导读

NOAA 1是美国于1970年12月11日发射的气象卫星,隶属于美国国家海洋和大气管理局的NOAA卫星系列。它承担着获取全球气象观测数据、监测大气环境变化的任务,为气象预报和气候研究提供关键支撑,是早期极轨气象卫星发展阶段的重要实践,为后续同系列气象卫星的研发运营积累了宝贵经验。

Basic Information
目录编号:
4793
目录名称:
NOAA 1
国际标识:
1970-106A
轨道中心:
EARTH
卫星名称:
国家海洋和大气管理局 1号
卫星全名:
国家海洋和大气管理局 1号 (NOAA 1)
卫星状态:
在轨 (已飞行20277 天)
发射日期:
1970-12-11 UTC
国别 :
美国 (US)
星等 :
--
Orbit Information
数据来源 国际轨道数据 AOE轨道数据
星历时间 2026-06-17T09:09:15+0800
7小时前
查看轨道信息
2026-06-17T00:00:00+0800
16小时前
查看轨道信息
半长轴 7825.736km 7825.736km
偏心率 0.0031289 0.0031187
轨道倾角 101.336° 101.336°
近地点辐角 347.538° 348.390°
升交点赤经 202.820° 202.455°
平近点角 67.511° 145.424°
近地点 1423.113km 1423.192km
远地点 1472.085km 1472.006km
周期 114.828分钟 114.828分钟
每日圈数 12.540505 12.540504
Detailed Information
平衡模式:
三轴稳定
覆盖范围:
美洲
制造商(研发单位):
美国无线电公司
制造商所在国:
美国
使用方式:
暂无
Satellite Introduction
NOAA卫星是美国国家海洋大气局的第三代实用气象观测卫星,第一代称为“泰罗斯”(TIROS)系列(1960-1965年),第二代称为“艾托斯”(ITOS)/NOAA系列(1970-1976年),其后运行的第三代称为TIROS--N/NOAA系列。其轨道是接近正圆的太阳同步轨道,轨道高度为870千米和833千米,轨道倾角为98.9°和98.7°,周期为101.4分钟。NOAA的应用目的是日常的气象业务,平时有两颗卫星运行。由于一颗卫星可以每天至少可以对地面同一地区进行两次观测,所以两颗卫星就可以进行四次以上的观测。该卫星已退役。
2D Orbit Map
3D Orbit Map
Orbit Altitude Analysis Chart
Orbit Inclination Analysis Chart
Orbit Comprehensive Analysis Chart
View Comprehensive Chart